This is the latest recevied weather packets stored in our database for station/object OK1VCF-8. If no packets are shown the sender has not sent any weather packets the latest 10 day(s).
| Time | Temp. | Humidity | Pressure | Rain* | Wind** | Luminosity | Snow |
|---|---|---|---|---|---|---|---|
| 1777517338 | -0.56° C | 70% | 1032.2 hPa | - | - | - | - |
| 1777516901 | -1.11° C | 71% | 1032.2 hPa | - | - | - | - |
| 1777516463 | -1.11° C | 69% | 1032.2 hPa | - | - | - | - |
| 1777515861 | 0° C | 66% | 1032.2 hPa | - | - | - | - |
| 1777515423 | 0° C | 65% | 1032.2 hPa | - | - | - | - |
| 1777514986 | 0° C | 66% | 1032.2 hPa | - | - | - | - |
| 1777514548 | 0° C | 66% | 1032.2 hPa | - | - | - | - |
| 1777514109 | 0.56° C | 62% | 1032.2 hPa | - | - | - | - |
| 1777513672 | 0.56° C | 63% | 1032 hPa | - | - | - | - |
| 1777513235 | 1.11° C | 60% | 1032 hPa | - | - | - | - |
| 1777512796 | 1.67° C | 58% | 1032.1 hPa | - | - | - | - |
| 1777512358 | 1.11° C | 58% | 1032 hPa | - | - | - | - |
| 1777511921 | 1.11° C | 59% | 1032 hPa | - | - | - | - |
| 1777511482 | 1.11° C | 60% | 1031.9 hPa | - | - | - | - |
| 1777511031 | 0° C | 61% | 1031.8 hPa | - | - | - | - |
| 1777510563 | 0.56° C | 60% | 1032 hPa | - | - | - | - |
| 1777510088 | 1.11° C | 56% | 1032 hPa | - | - | - | - |
| 1777509614 | 1.11° C | 56% | 1032 hPa | - | - | - | - |
| 1777508955 | 2.22° C | 56% | 1032.1 hPa | - | - | - | - |
| 1777508480 | 1.67° C | 54% | 1032 hPa | - | - | - | - |
| 1777508005 | 2.22° C | 52% | 1032 hPa | - | - | - | - |
| 1777507531 | 3.33° C | 50% | 1032 hPa | - | - | - | - |
| 1777507059 | 2.22° C | 52% | 1032.1 hPa | - | - | - | - |
| 1777506583 | 2.22° C | 52% | 1032.2 hPa | - | - | - | - |
| 1777506112 | 1.67° C | 54% | 1032.1 hPa | - | - | - | - |
* Rain since midnight (hover to see other rain measurements)
** Current wind speed in m/s (hover to see current wind gust speed)